Brookings, OR

6:47 PM PDT on July 24, 2017 (GMT -0700)
Brookings State

Weather History for KBOK - April, 2013

Change the Weather History Date:

Saturday, April 20, 2013

  Actual Average Record
Temperature  
Mean Temperature 51 °F -  
Max Temperature 61 °F 59 °F 88 °F (1931)
Min Temperature 41 °F 43 °F 33 °F (1963)
Degree Days  
Heating Degree Days 14    
Growing Degree Days 1 (Base 50)    
Moisture  
Dew Point 47 °F    
Average Humidity 74    
Maximum Humidity 100    
Minimum Humidity 56    
Precipitation  
Precipitation 0.00 in - - ()
Sea Level Pressure  
Sea Level Pressure 30.29 in    
Wind  
Wind Speed 3 mph (NNW)    
Max Wind Speed 16 mph    
Max Gust Speed -    
Visibility 7 miles    
Events Fog    
Averages and records for this station are not official NWS values.
T = Trace of Precipitation, MM = Missing Value Source: NWS Daily Summary

Daily Weather History Graph

Daily Weather History Graph

Search for Another Location

Airport or City:

Trip Planner

Search our weather history database for the weather conditions in past years. The results will help you decide how hot, cold, wet, or windy it might be!

Date:

Astronomy

Apr. 20, 2013 Rise Set
Actual Time 6:28 AM PDT 8:04 PM PDT
Civil Twilight 5:58 AM PDT 8:33 PM PDT
Nautical Twilight 5:23 AM PDT 9:09 PM PDT
Astronomical Twilight 4:45 AM PDT 9:47 PM PDT
Moon 2:49 PM PDT (4/20) 3:26 AM PDT (4/20)
Length of Visible Light 14h 35m
Length of Day
13h 36m
Waxing Gibbous, 72% of the Moon is Illuminated
Apr 20
Waxing Gibbous
Apr 25
Full
May 2
Last Quarter
May 9
New
May 17
First Quarter

Hourly Weather History & Observations

Time (PDT) Temp. Windchill Dew Point Humidity Pressure Visibility Wind Dir Wind Speed Gust Speed Precip Events Conditions
12:06 AM 46.4 °F 45.2 °F - N/A% 30.32 in 1.8 mi East 3.5 mph - N/A   Overcast
12:10 AM 46.4 °F - - N/A% 30.32 in 1.0 mi Calm Calm - N/A   Overcast
12:15 AM 46.4 °F - - N/A% 30.32 in 0.5 mi Calm Calm - N/A Fog Fog
12:21 AM 46.4 °F - - N/A% 30.33 in 1.0 mi Calm Calm - N/A   Overcast
12:25 AM 46.4 °F - - N/A% 30.33 in 1.5 mi Calm Calm - N/A   Overcast
12:38 AM 46.4 °F - - N/A% 30.33 in 3.0 mi Calm Calm - N/A   Overcast
12:56 AM 45.0 °F - - N/A% 30.34 in 10.0 mi Calm Calm - N/A   Overcast
1:24 AM 46.4 °F - - N/A% 30.34 in 2.5 mi Calm Calm - N/A   Overcast
1:28 AM 46.4 °F - - N/A% 30.34 in 1.2 mi Calm Calm - N/A   Overcast
1:33 AM 46.4 °F - - N/A% 30.33 in 0.8 mi Calm Calm - N/A   Overcast
1:43 AM 46.4 °F - - N/A% 30.33 in 1.0 mi Calm Calm - N/A   Overcast
1:56 AM 45.9 °F - - N/A% 30.34 in 1.2 mi Calm Calm - N/A   Overcast
2:09 AM 46.4 °F 45.2 °F - N/A% 30.33 in 2.0 mi South 3.5 mph - N/A   Mostly Cloudy
2:17 AM 46.4 °F - - N/A% 30.32 in 5.0 mi Calm Calm - N/A   Haze
2:41 AM 44.6 °F - - N/A% 30.32 in 10.0 mi Calm Calm - N/A   Scattered Clouds
2:56 AM 43.9 °F - - N/A% 30.33 in 10.0 mi Calm Calm - N/A   Clear
3:56 AM 43.0 °F - - N/A% 30.33 in 10.0 mi Calm Calm - N/A   Clear
4:40 AM 42.8 °F - - N/A% 30.32 in 10.0 mi Calm Calm - N/A   Partly Cloudy
4:56 AM 43.0 °F 41.3 °F - N/A% 30.33 in 10.0 mi ENE 3.5 mph - N/A   Partly Cloudy
5:56 AM 41.9 °F - - N/A% 30.33 in 9.0 mi Calm Calm - N/A   Clear
6:56 AM 41.9 °F 40.0 °F - N/A% 30.32 in 8.0 mi East 3.5 mph - N/A   Clear
7:56 AM 45.0 °F - - N/A% 30.33 in 9.0 mi Calm Calm - N/A   Clear
8:56 AM 52.0 °F - 50.0 °F 93% 30.33 in 10.0 mi Calm Calm - N/A   Clear
9:56 AM 55.9 °F - 50.9 °F 83% 30.31 in 10.0 mi Variable 3.5 mph - N/A   Clear
10:56 AM 59.0 °F - 48.9 °F 69% 30.30 in 8.0 mi WNW 5.8 mph - N/A   Clear
11:56 AM 61.0 °F - 46.9 °F 60% 30.29 in 10.0 mi NW 9.2 mph - N/A   Clear
12:56 PM 59.9 °F - 46.9 °F 62% 30.27 in 10.0 mi NNW 12.7 mph - N/A   Clear
1:56 PM 61.0 °F - 47.8 °F 62% 30.25 in 10.0 mi NW 13.8 mph - N/A   Clear
2:56 PM 61.0 °F - 46.9 °F 60% 30.23 in 10.0 mi NNW 15.0 mph - N/A   Clear
3:56 PM 61.9 °F - 45.9 °F 56% 30.21 in 9.0 mi North 11.5 mph - N/A   Clear
4:56 PM 59.0 °F - 45.9 °F 62% 30.20 in 9.0 mi NNW 16.1 mph - N/A   Clear
5:56 PM 59.9 °F - 45.9 °F 60% 30.19 in 10.0 mi NNW 15.0 mph - N/A   Clear
6:56 PM 56.8 °F - 45.0 °F 64% 30.18 in 10.0 mi NNW 16.1 mph - N/A   Clear
7:56 PM 54.0 °F - 45.9 °F 74% 30.19 in 9.0 mi NW 10.4 mph - N/A   Clear
8:56 PM 50.9 °F - 46.9 °F 86% 30.21 in 10.0 mi Calm Calm - N/A   Clear
9:56 PM 47.8 °F - 47.8 °F 100% 30.23 in 7.0 mi East 4.6 mph - N/A   Clear
10:56 PM 46.9 °F - 46.9 °F 100% 30.24 in 8.0 mi Calm Calm - N/A   Clear
11:56 PM 45.9 °F - 45.9 °F 100% 30.24 in 8.0 mi Calm Calm - N/A   Clear